Regional Weather Roundup
Issued by NWS

Home | Current Version | Previous Version | Graphics & Text | Print | Product List | Glossary On
Versions: 1 2 3 4 5 6 7 8 9 10 11 12 13 14 15 16 17 18 19 20 21 22 23 24 25 26 27 28 29 30 31 32 33 34 35 36 37 38 39 40 41 42 43 44 45 46 47 48 49 50
000
ASUS43 KFSD 250710
RWRSD

WEATHER ROUNDUP FOR SOUTH DAKOTA
NATIONAL WEATHER SERVICE SIOUX FALLS SD
200 AM CDT SAT OCT 25 2014

NOTE: "FAIR" INDICATES FEW OR NO CLOUDS BELOW 12,000 FEET WITH NO
SIGNIFICANT WEATHER AND/OR OBSTRUCTIONS TO VISIBILITY.


SDZ001>005-009-010-012>017-250800-
NORTHWEST AND NORTH CENTRAL SOUTH DAKOTA

CITY           SKY/WX    TMP DP  RH WIND       PRES   REMARKS
BUFFALO          N/A     50  32  50 W5        30.07R
FAITH            N/A     50  33  52 NW9       30.11S
MOBRIDGE       MOCLDY    54  37  52 NW7       30.07R
$$

SDZ012>016-024>037-041>051-057-063-072>074-250800-
SOUTHWEST AND SOUTH CENTRAL SOUTH DAKOTA

CITY           SKY/WX    TMP DP  RH WIND       PRES   REMARKS
RAPID CTY ARPT CLEAR     42  32  67 NW8       30.15R
PIERRE         CLOUDY    53  35  50 N6        30.09R
CUSTER         CLEAR     38  32  79 NE5       30.20R
ELLSWORTH AFB  CLEAR     42  33  71 NW7       30.15R
PHILIP         CLEAR     45  34  65 W3        30.13R
PINE RIDGE     CLEAR     34  32  92 E5        30.13S WCI  30
SPEARFISH      FAIR      39  32  75 S7        30.17S
WINNER         FAIR      47  35  63 NW7       30.11R
$$

SDZ004>011-016>023-039-040-250800-
NORTHEAST SOUTH DAKOTA

CITY           SKY/WX    TMP DP  RH WIND       PRES   REMARKS
ABERDEEN       MOCLDY    55  37  50 NW3       30.05S
WATERTOWN      CLOUDY    55  38  52 N9        30.05R
SISSETON         N/A     59  32  36 N16       30.02R
$$

SDZ017-020-022-023-036>040-048>070-250800-
SOUTHEAST SOUTH DAKOTA

CITY           SKY/WX    TMP DP  RH WIND       PRES   REMARKS
SIOUX FALLS    PTCLDY    51  43  74 NW3       30.03R
HURON          MOCLDY    50  41  71 N8        30.07R
CHAMBERLAIN    PTCLDY    54  38  53 N6        30.09R
MITCHELL       PTCLDY    47  39  74 NW7       30.07R
YANKTON        CLEAR     48  43  81 NW8       30.04R
$$

ABBREVIATIONS USED IN REMARKS
   TC - TEMPERATURE IN CELSIUS
  WCI - WIND CHILL INDEX
   HX - HEAT INDEX
  VSB - VISIBILITY




USA.gov is the U.S. government's official web portal to all federal, state and local government web resources and services.